SAPPHIRE

Satellite information

Favourite Embed

Satellite Type and Status

PAYLOADIN ORBIT

Key statistics

Satellite SAPPHIRE at a glance.

Uptime

8681

Days in orbit

Revolutions

≈ 14.3

Per day

Orbit

LEO

Low Earth Orbit

Inclination

67.1

Latest

Satellite identification and parameters

Extended collection of information and parameters for SAPPHIRE.

Object identification

Identified? True

Debris? False

Object name: SAPPHIRE

International designator: 2001-043D

Object number (NORAD): 26932

Object ID (CCSDS): 26932

Country: UNITED STATES OF AMERICA (US)

Current information (Y/N): Y

RCS size: MEDIUM

Orbital parameters

Period: 100.619 minutes

Inclination: 67.0562 deg

SMA: 7166.034 km

Apoapsis: 791.014 km

Periapsis: 784.783 km

RAAN: 66.9718 deg

Eccentricy: 0.0004347

Argument of periapsis: 270.2253 deg

Mean anomaly: 89.835 deg

Mean motion: 14.31147871 rev/day

Mean motion (dot): 0.0000004 rev/day2

B* drag term: 0.000046673 1/REarth

Two-line elements (TLE)

Creation date: July 6, 2025, 6:05 p.m.

Reference frame: TEME

Reference center: EARTH

Epoch: July 6, 2025, 2:19 a.m. UTC

TLE line 0: 0 SAPPHIRE

TLE line 1: 1 26932U 01043D 25187.09688192 .00000040 00000-0 46673-4 0 9990

TLE line 2: 2 26932 67.0562 66.9718 0004347 270.2253 89.8350 14.31147871240866

Live tracking on map

Real-time ground track for satellite SAPPHIRE.

In-orbit conjunctions

A list of the most updated potential collisions computed for object SAPPHIRE.

Target Orbit TCA Probability of collision Miss distance Type
SCOUT X-4 DEB LEO 2025-02-10 05:23:45 0.0001587 298.0 (m) DEBRIS
FENGYUN 1C DEB SSO 2025-01-31 10:48:18 0.0005673223 773.0 (m) DEBRIS
FENGYUN 1C DEB SSO 2024-12-02 13:59:30 0.0001251045 209.0 (m) DEBRIS
CZ-6A DEB SSO 2024-11-28 12:32:29 0.0009388873 69.0 (m) DEBRIS
NOAA 11 DEB SSO 2024-10-13 11:09:33 0.0002045796 808.0 (m) DEBRIS

Associated space launch

Research (Atmospheric density) satellite built by Naval Research Laboratory (NRL) for NASA, USA.

SAPPHIRE was lifted into orbit during the mission ‘Athena I | Starshine-OSCAR-43’, on board a Athena I space rocket.

The launch took place on Sept. 30, 2001, 2:40 a.m. from Launch Pad 1.

For more information about the launch, click the button.

Launch to space Athena I | Starshine-OSCAR-43
Athena I | Starshine-OSCAR-43

Agency: N/A

Status: Launch Successful

Launch date: Sept. 30, 2001, 2:40 a.m. UTC

Rocket: Athena I

Launch pad: Launch Pad 1

Location: Pacific Spaceport Complex, Alaska, USA

...

Latest news about this satellite

There are no fresh news available about this satellite. Check back as we update our databases every day.


Newsletter sign-up

Weekly statistics, charts and insights to help you stay on top of the space industry.